Погода Малые Дербеты

Погода Малые Дербеты : погода сейчас, прогноз погоды и архив. Всё, что Вы хотите узнать о погоде Малые Дербеты!

Хотите узнать прогноз погоды Малые Дербеты? Тогда Вам сюда: Погода Малые Дербеты

Поиск расширенной информации на нашем сайте:

Другие новости

Новости СМИ2

Главная страница сайта

Новости сайта

03.07.2017

Напоминаем, что на нашем специализированном сайте Метеоцентр.Азия вы можете получить высокодетализированные автоматические прогнозы погоды по пунктам России, СНГ и мира в авиационном формате (включающие направление и скорость ветра, видимость, явления погоды, количество и форму облачности, нижнюю и верхнюю границу облачности).

Рекомендуем: Заказать Письмо от Деда Мороза с доставкой на дом.

Погода Малые Дербеты - сегодня

Время (UTC), дата Ветер
(°,м/с) 
Видим.   Явления Облачность Т
(°С)
Тd
(°С)
f(%) Тe
(°С)
Pmin
(гПа)
dP
(гПа)
Po
(мм)
O2
(г/м3)
Тmin Tmax R s Состояние
почвы
06 15.08.17 030 (СВ) 20000 м    1/0 верхняя 
[Ci fib]
+26.5 +3.6 23 +27  1016.8  0.2  762  279           
09 15.08.17 030 (СВ) 20000 м    1/0 верхняя 
[Ci fib]
+29.3 +0.8 16 +29  1016.4  -0.4  762  277           
12 15.08.17 020 (С) 20000 м    4/0 верхняя 
[Ci fib]
+31.9 +1.4 14 +32  1015.1  -1.3  761  274           
15 15.08.17 030 (СВ) 20000 м    4/0 верхняя 
[Ci fib]
+31.1 +2.6 16 +31  1014.8  -0.3  760  275    +32.2       
18 15.08.17 310 (СЗ) 20000 м    ясно 
+24.6 +5.5 29 +25  1015.5  0.6  761  280           
21 15.08.17 330 (СЗ) 20000 м    ясно 
+21.2 +7.5 41 +21  1015.3  -0.2  761  283           
00 16.08.17 100 (В) 20000 м    ясно 
+17.3 +7.8 54 +19  1016.1  0.8  761  287           
03 16.08.17 290 (З) 20000 м    9/0 средняя 
[Ac trans]
+17.8 +8.6 55 +19  1017.6  1.5  762  287  +16.7         
06 16.08.17 020 (С) 20000 м    1/0 верхняя 
[Ci fib]
+28.4 +11.3 35 +31  1018.2  0.7  763  276           
09 16.08.17 040 (СВ) 20000 м    3/3 1000 м 
[Cu med, cong]
+32.4 +4.8 18 +32  1017.5  -0.7  762  274           
12 16.08.17 020 (С) 20000 м    3/3 1000 м 
[Cu med, cong]
+32.8 +2.7 15 +33  1016.7  -0.8  762  274           
15 16.08.17 070 (В) 3{11}  20000 м    5/3 1000 м верхняя 
[Cu med, cong|Ci fib]
+31.9 +1.7 15 +32  1016.5  -0.2  762  275    +33.4       
18 16.08.17 020 (С) 20000 м    3/0 верхняя 
[Ci fib]
+25 +2.9 24 +25  1017  0.4  762  281           
21 16.08.17 110 (В) н/о    н/о 
+20.4 +3.7 33 +20  1017.6  0.6  762  285           
00 17.08.17 340 (С) 20000 м    ясно 
+16.7 +4.3 44 +18  1018  0.4  763  289           
03 17.08.17 320 (СЗ) 20000 м    3/0 верхняя 
[Ci fib]
+16.7 +7 53 +18  1018.7  0.7  763  289  +15.3         
06 17.08.17 010 (С) 20000 м    3/0 верхняя 
[Ci fib]
+28.5 +8 28 +29  1018.5  0.1  763  277           
09 17.08.17 060 (СВ) 5-10{12}  20000 м  пыльный позёмок  1/1 1000 м 
[Cu hum]
+34.8 +0.4 11 +35  1016.9  -1.6  762  272           
12 17.08.17 090 (В) 6-10{14}  20000 м  пыльный позёмок  4/3 1000 м средняя 
[Cu hum|Ac cast]
+34.5 +0.4 11 +35  1016.5  -0.5  762  272           
15 17.08.17 090 (В) 20000 м  пыльный позёмок  10/0 средняя 
[Ac trans]
+32.2 +2.3 15 +32  1016.6  0.2  762  274    +35.3       
18 17.08.17 090 (В) 3{10}  20000 м    ясно 
+25.3 +2.5 23 +25  1018.3  1.7  763  281           
21 17.08.17 320 (СЗ) 20000 м    ясно 
+19.5 +3.6 35 +21  1018.7  0.3  763  287           
00 18.08.17 330 (СЗ) 20000 м    ясно 
+17.5 +4.4 42 +18  1018.7  -0.1  763  288           
03 18.08.17 320 (СЗ) 20000 м    ясно 
+18.4 +8.7 53 +19  1018.9  0.1  763  287  +16.9         
06 18.08.17 350 (С) 20000 м    ясно 
+29.5 +5.8 22 +30  1019.2  0.3  764  277           
Время (UTC), дата Ветер
(°,м/с) 
Видим.   Явления Облачность Т
(°С)
Тd
(°С)
f(%) Тe
(°С)
Pmin
(гПа)
dP
(гПа)
Po
(мм)
O2
(г/м3)
Тmin Tmax R s Состояние
почвы

Для получения пояснительной информации подведите курсор к названию столбца.

ПОГОДА Малые Дербеты - архив

Всё, что Вы хотите узнать о погоде Малые Дербеты - удобно и подробно!

Выберите нужную дату (начиная с 1 января 2015* года) и нажмите кнопку "Найти".
Будут отображены архивные сводки погоды по пункту Малые Дербеты, начиная с указанной даты.


Отображать данные в формате CSV (для использования в таблицах Excel)


Внимание! Наш архив погоды предназначен исключительно для личного некоммерческого использования в познавательных целях. Если Вам необходимы официальные справки о состоянии погоды (для производственных, юридических, коммерческих и т.п. целей), обращайтесь в органы Росгидромета.

*Примечание: данная дата относится к архиву по метеостанциям СССР (Россия, СНГ, Балтия).
Архив по метеостанциям Зарубежной Европы и Азии (кроме Китая) хранится 10 дней, по другим регионам земного шара (Китай, Африка, Америка, Австралия, Океания) - 1 день.

Малые Дербеты - район местоположения метеостанции


Название, широта, долгота, высота метеостанции:
Малые Дербеты 47.9°ш. 44.7°д. 9 м над ур. моря [Российская Федерация]

Дополнительная информация

В oтличие oт бoльшинства пoгoдных сайтoв мы публикуем пoдрoбную метеoинфoрмацию в детальнoм прoфессиoнальнoм фoрмате.

Характеристики температуры и влажнoсти вoздуха измеряются на высoте 2 м в тени вдали oт зданий и деревьев.
Скoрoсть ветра измеряется на высoте 10 м (на урoвне рoста челoвека скoрoсть ветра ниже в 1.5-2 раза). Если метеoстанция нахoдится в гoрoде или в лесу, тo скoрoсть ветра занижена на 2-4 м/с пo сравнению с oткрытым местoм. Скoрoсть ветра над акватoриями крупных рек и oзёр, а также на вершинах хoлмoв на 2-5 м/с выше, чем в oбычных услoвиях.
Атмoсфернoе давление в разных тoчках местнoсти мoжет значительнo oтличаться oт давления на метеoстанции, в зависимoсти oт услoвий рельефа (при пoдъёме на 10 м давление пoнижается примернo на 1 мм рт.ст.).